Simultaneous Nadir Overpasses (SNOs) Predictions

Prediction of SNOs between GOES-16 and METOP-A Satellite Orbit:

Table of predicted SNOs for the next 14.0 days since TLE Epoch: 2/19/2022
Index Date Time (GOES-16) GOES-16 Lat,Lon METOP-A Lat,Lon Distance(km) Time Diff (sec)
1 02/20/2022 00:50:08 -0.00, -75.20 0.87, -71.11 465.72 80
2 02/20/2022 13:06:10 0.01, -75.23 -0.05, -74.97 29.29 80
3 02/21/2022 01:25:38 -0.01, -75.21 -0.82, -79.02 433.64 80
4 02/23/2022 00:51:45 -0.00, -75.21 0.82, -71.37 437.35 80
5 02/23/2022 13:08:00 0.01, -75.24 -0.01, -75.28 5.22 80
6 02/24/2022 01:27:16 -0.01, -75.21 -0.86, -79.28 461.88 80
7 02/26/2022 00:53:22 -0.01, -75.22 0.76, -71.62 409.55 80
8 02/26/2022 13:12:28 0.01, -75.25 0.11, -75.57 37.70 80
9 02/27/2022 01:28:51 -0.02, -75.22 -0.96, -79.52 489.27 80
10 03/01/2022 00:54:57 -0.02, -75.24 0.68, -71.86 383.52 80
11 03/01/2022 13:14:15 0.03, -75.27 0.19, -75.86 68.73 80
12 03/04/2022 00:56:33 -0.03, -75.27 0.64, -72.11 359.82 80
13 03/04/2022 13:16:03 0.03, -75.31 0.20, -76.17 97.29 80
